Hourly Data

Hourly Data Report for March 08, 2012

All times are specified in Local Standard Time (LST). Add 1 hour to adjust for Daylight Saving Time where and when it is observed.

Metadata including Station Name, Province, Latitude, Longitude, Elevation, Climate ID, WMO ID, TC ID
CHARLOTTETOWN A
PRINCE EDWARD ISLAND
Latitude: 46°17'19.020" N Longitude: 63°07'43.070" W Elevation: 48.80 m
Climate ID: 8300300 WMO ID: 71706 TC ID: YYG
Hourly Data Report for March 8, 2012
Temp Definition
°C

Dew Point Temp Definition
°C

Rel Hum Definition
%

Wind Dir Definition
10's deg
Wind Spd Definition
km/h

Visibility Definition
km

Stn Press Definition
kPa

Hmdx Definition

Wind Chill Definition

Weather Definition

TIME
00:00 1.3 -2.1 78 20 26 24.1 101.45 Cloudy
01:00 1.3 -1.8 80 20 28 24.1 101.36 Cloudy
02:00 1.4 -1.6 80 21 22 24.1 101.30 Mainly Clear
03:00 1.4 -1.4 82 21 24 19.3 101.20 Mainly Clear
04:00 1.6 -1.0 83 20 26 24.1 101.12 Mainly Clear
05:00 1.6 -1.2 82 20 24 24.1 101.08 Mostly Cloudy
06:00 1.5 -1.1 83 21 20 24.1 101.03 Mostly Cloudy
07:00 2.3 -0.6 81 21 24 19.3 101.00 Mostly Cloudy
08:00 3.7 0.0 77 22 20 24.1 100.98 Mostly Cloudy
09:00 4.8 0.1 72 22 32 24.1 100.94 Mostly Cloudy
10:00 5.5 0.2 69 22 28 24.1 100.89 Mainly Clear
11:00 7.3 0.5 62 22 24 24.1 100.81 Mainly Clear
12:00 7.8 1.1 63 22 28 24.1 100.73 Mainly Clear
13:00 9.4 2.2 61 22 30 24.1 100.61 Mostly Cloudy
14:00 9.3 2.1 61 22 32 24.1 100.50 Mostly Cloudy
15:00 9.5 2.0 59 22 22 24.1 100.44 Mostly Cloudy
16:00 9.8 2.7 61 22 32 24.1 100.40 Mostly Cloudy
17:00 9.2 2.7 64 22 22 24.1 100.32 Mostly Cloudy
18:00 9.5 3.1 64 22 24 24.1 100.28 Mostly Cloudy
19:00 9.0 2.9 66 22 22 24.1 100.27 Mostly Cloudy
20:00 10.4 3.7 63 23 37 24.1 100.25 Mostly Cloudy
21:00 9.9 3.5 64 22 35 24.1 100.21 Mostly Cloudy
22:00 7.6 2.2 69 21 22 24.1 100.13 Mostly Cloudy
23:00 6.6 2.1 73 18 28 24.1 99.96 Mostly Cloudy

Notes on Data Quality.

Legend
  • M = Missing
  • E = Estimated
  • NA = Not Available
  • ‡ = Partner data that is not subject to review by the National Climate Archives